Location: Unspecified
(48.8386°N, 0.0000°E)
Time: 02:41:44
(UTC+00:00)

Resurs 1-4 Rocket - Visible Passes

Search period start: 04 April 2026 00:00
Search period end: 14 April 2026 00:00
Orbit: 798 x 812 km, 98.8° (Epoch: 29 March)

Date Brightness Start Highest point End Pass type
(mag) Time Alt. Az. Time Alt. Az. Time Alt. Az.
4 Apr 3.4 01:59:29 10° NNE 02:04:14 32° E 02:05:13 30° ESE visible
4 Apr 2.6 03:39:06 10° N 03:44:05 43° WNW 03:46:16 29° WSW visible
5 Apr 4.0 01:34:53 10° NE 01:38:46 20° E 01:39:50 19° ESE visible
5 Apr 2.1 03:13:43 10° N 03:19:01 67° WNW 03:20:53 40° SW visible
5 Apr 4.0 04:55:27 10° NNW 04:57:49 13° NW 05:00:11 10° WNW visible
6 Apr 4.6 01:11:07 10° ENE 01:13:13 12° E 01:14:28 11° E visible
6 Apr 2.1 02:48:29 10° NNE 02:53:51 79° ESE 02:55:30 46° S visible
6 Apr 3.6 04:29:19 10° NNW 04:33:00 19° NW 04:36:33 11° W visible
7 Apr 2.8 02:23:24 10° NNE 02:28:35 49° E 02:30:07 38° SE visible
7 Apr 3.2 04:03:36 10° N 04:08:06 29° WNW 04:11:10 17° WSW visible
8 Apr 3.5 01:58:31 10° NNE 02:03:14 31° E 02:04:44 27° SE visible
8 Apr 2.6 03:38:05 10° N 03:43:07 44° WNW 03:45:46 25° WSW visible
9 Apr 4.1 01:33:57 10° NE 01:37:46 20° E 01:39:20 17° ESE visible
9 Apr 2.1 03:12:43 10° N 03:18:02 68° WNW 03:20:23 33° SW visible
10 Apr 4.6 01:10:16 10° ENE 01:12:13 12° E 01:13:57 10° ESE visible
10 Apr 2.2 02:47:30 10° NNE 02:52:51 77° ESE 02:55:00 37° S visible
10 Apr 3.6 04:28:17 10° NNW 04:32:02 20° WNW 04:35:46 10° WSW visible
11 Apr 2.8 02:22:25 10° NNE 02:27:35 48° E 02:29:36 32° SSE visible
11 Apr 3.1 04:02:34 10° N 04:07:07 29° WNW 04:10:39 15° WSW visible
12 Apr 3.6 01:57:32 10° NNE 02:02:13 30° E 02:04:13 24° SE visible
12 Apr 2.6 03:37:05 10° N 03:42:08 45° WNW 03:45:15 22° SW visible
13 Apr 4.1 01:33:01 10° NE 01:36:45 19° E 01:38:49 16° ESE visible
13 Apr 2.1 03:11:43 10° N 03:17:02 70° WNW 03:19:52 28° SSW visible
